Regional Weather Roundup
Issued by NWS

Home | Current Version | Previous Version | Graphics & Text | Print | Product List | Glossary On
Versions: 1 2 3 4 5 6 7 8 9 10 11 12 13 14 15 16 17 18 19 20 21 22 23 24 25 26 27 28 29 30 31 32 33 34 35 36 37 38 39 40 41 42 43 44 45 46 47 48 49 50
291
ASUS44 KLIX 232205
RWRLA
LOUISIANA WEATHER ROUNDUP
NATIONAL WEATHER SERVICE NEW ORLEANS LA
500 PM CDT TUE SEP 23 2014

NOTE: "FAIR" INDICATES FEW OR NO CLOUDS BELOW 12,000 FEET WITH NO
      SIGNIFICANT WEATHER AND/OR OBSTRUCTIONS TO VISIBILITY.
      SKY/WX - SKY CONDITION AND SIGNIFICANT WEATHER.
      TMP - AIR TEMPERATURE.    DP   - DEWPOINT TEMPERATURE.
      RH  - RELATIVE HUMIDITY.  PRES - PRESSURE.
      HX  - HEAT INDEX.         WCI  - WIND CHILL INDEX.

*  THESE STATIONS ARE NOT NWS OR FAA STATIONS AND ARE NOT UNDER
   NWS QUALITY CONTROL.

LAZ040-048-061>063-065-066-069-232300-
SOUTHEAST LOUISIANA

CITY           SKY/WX    TMP DP  RH WIND       PRES   REMARKS
N.O. AUDUBON   NOT AVBL
N.O. INTL ARPT MOSUNNY   84  54  35 N9        30.03F
N.O. LAKEFRONT SUNNY     85  55  35 N7        30.04S
N.O. DOWNTOWN* FAIR      84  50  30 N9G16     30.03F
SLIDELL        SUNNY     84  52  33 NE8       30.03F
BATON ROUGE    SUNNY     83  55  38 E8        30.05F
BOOTHVILLE     MOSUNNY   80  65  59 NE10      30.03S
BELLE CHASSE   MOSUNNY   83  53  35 NE10      30.02F
BOGALUSA*      FAIR      84  50  29 NE8       30.06S
GALLIANO*      NOT AVBL
NEW ROADS*     FAIR      82  55  38 N9        30.05S
GONZALES*      FAIR      83  55  38 N6        30.03F
HAMMOND*       SUNNY     86  46  25 NE5       30.06S
HOUMA*         SUNNY    N/A N/A N/A NE10      30.02F
PORT FOURCHON* CLEAR     81  61  50 NE15      30.05S

$$

LAZ041-044-053-054-232300-
SOUTHWEST LOUISIANA

CITY           SKY/WX    TMP DP  RH WIND       PRES   REMARKS
LAKE CHARLES   SUNNY     83  56  39 NE10      30.04F
LAFAYETTE      SUNNY     82  55  39 NE9       30.04F
PATTERSON      SUNNY     84  55  37 NE13      30.06S
SALT POINT       N/A     86  58  38 VRB5      30.02S
NEW IBERIA     SUNNY     84  56  38 NE12      30.04F
CHENAULT AIRPK SUNNY     82  55  39 N6G16     30.05

$$

LAZ027-028-232300-
CENTRAL LOUISIANA

CITY           SKY/WX    TMP DP  RH WIND       PRES   REMARKS
FORT POLK      MOSUNNY   81  53  38 NE10      30.07F
ALEXANDRIA INT MOSUNNY   83  53  35 N10       30.06F
ALEXANDRIA     MOSUNNY   81  53  37 CALM      30.07F

$$

LAZ001-002-232300-
NORTHWEST LOUISIANA

CITY           SKY/WX    TMP DP  RH WIND       PRES   REMARKS
SHREVEPORT     PTSUNNY   81  47  30 E8        30.09F
BARKSDALE AFB  PTSUNNY   83  48  29 NE7       30.10F
DTN SHREVEPORT PTSUNNY   80  50  34 NE8       30.10F

$$

LAZ014-016-232300-
NORTHEAST LOUISIANA

CITY           SKY/WX    TMP DP  RH WIND       PRES   REMARKS
MONROE         SUNNY     83  46  27 NE9       30.10F
TALLULAH       SUNNY     83  51  33 N8        30.09F

$$




USA.gov is the U.S. government's official web portal to all federal, state and local government web resources and services.